Regional Weather Roundup
Issued by NWS Bismarck, ND

Home | Current Version | Previous Version | Text Only | Print | Product List | Glossary On
Versions: 1 2 3 4 5 6 7 8 9 10 11 12 13 14 15 16 17 18 19 20 21 22 23 24 25 26 27 28 29 30 31 32 33 34 35 36 37 38 39 40 41 42 43 44 45 46 47 48 49 50
000
ASUS43 KBIS 040420
RWRBIS

NWR BROADCAST TEXT
NATIONAL WEATHER SERVICE BISMARCK ND
1100 PM CDT SUN MAY 03 2015

NOTE: "FAIR" INDICATES FEW OR NO CLOUDS BELOW 12,000 FEET WITH NO
SIGNIFICANT WEATHER AND/OR OBSTRUCTIONS TO VISIBILITY.


CITY           SKY/WX    TMP DP  RH WIND       PRES   REMARKS
WILLISTON      PTCLDY    46  20  35 NE5       30.10R
MINOT          CLEAR     47  27  45 NW9       30.07R
MINOT AFB      CLEAR     38  24  55 NW6       30.07R
BISMARCK       PTCLDY    53  22  29 N6        30.08R
DICKINSON      MOCLDY    42  27  55 S5        30.08R
GARRISON         N/A     45  27  49 N5        30.08R
HETTINGER ARPT PTCLDY    44  26  49 NE9       30.10R
JAMESTOWN      PTCLDY    43  24  47 NW8       30.04R
BEACH          FAIR      41  32  70 CALM      30.10S
CARRINGTON     FAIR      45  23  42 NW8       30.06R
CROSBY         FAIR      37  25  60 W5        30.10S
HARVEY         FAIR      45  27  49 NW6       30.07R
HAZEN          FAIR      37  25  60 S5        30.09S
LINTON         FAIR      48  25  40 CALM      30.08R
MANDAN         FAIR      48  25  40 N8        30.09R
OAKES            N/A     45  28  53 W5        30.03R
STANLEY        FAIR      41  28  60 N6        30.10R
TIOGA          FAIR      32  19  59 SW3       30.13R
WATFORD CITY   FAIR      46  21  36 CALM      30.08R
$$

CITY           SKY/WX    TMP DP  RH WIND       PRES   REMARKS
GRAND FORKS    PTCLDY    49  29  46 N10       30.00R
GRAND FORKS AF PTCLDY    49  26  40 NW8       30.00R
DEVILS LAKE    CLEAR     46  32  57 NW7       30.05R
FARGO          CLEAR     51  26  37 NW7       29.99R
CANDO          FAIR      45  30  57 N8        30.05R
CAVALIER       FAIR      54  32  43 N7        30.03R
GRAFTON        FAIR      50  30  46 N9        30.03R
GWINNER        CLEAR     52  23  32 NW12      30.03R
LANGDON        FAIR      43  32  65 NE7       30.05R
WALHALLA       FAIR      45  28  53 NW5       30.04R
$$

CITY           SKY/WX    TMP DP  RH WIND       PRES   REMARKS
ABERDEEN       CLEAR     50  25  37 N9        30.03R
MOBRIDGE       CLEAR     50  23  34 NE9       30.04R
BUFFALO          N/A     52  34  50 E3        30.04R
RAPID CITY     PTCLDY    51  34  52 NE10      30.08R
GLASGOW        CLEAR     45  27  49 E9        30.06R
SIDNEY         MOCLDY    46  23  39 CALM      30.10R
WOLF POINT     CLEAR     44  27  51 E6        30.09R
GLENDIVE       CLOUDY    48  27  43 NE5       30.09S
MILES CITY     PTCLDY    54  29  38 E8        30.06R
BAKER          MOCLDY    42  30  62 SE5       30.10R
$$

CITY           SKY/WX    TMP DP  RH WIND       PRES   REMARKS
BILLINGS       MOCLDY    52  35  52 NE8       30.01R
GREAT FALLS    CLEAR     53  30  41 E10       29.95R
REGINA         PTCLDY    43  32  65 S6        30.10R
ESTEVAN        PTCLDY    43  32  65 NW3       30.09R
$$




USA.gov is the U.S. government's official web portal to all federal, state and local government web resources and services.